CW5444 Weather Reports


Display with metric or nautical units.
time (UTC)temp
F
wind
direction
speed
MPH
gust
MPH
rain 1hr
in
rain 24hr
in
rain mn
in
humidity
%
barometer
mb
20260504130417 50 195 3.0 6.0 0.00 0.00 0.00 72 1018.2
20260504110429 35 235 2.0 3.0 0.00 0.00 0.00 88 1016.7
20260504100432 34 195 0.0 0.0 0.00 0.00 0.00 88 1017.3
20260504081423 34 195 0.0 0.0 0.00 0.00 0.00 87 1017.2
20260504080430 34 195 0.0 0.0 0.00 0.00 0.00 87 1017.1
20260504050452 36 195 0.0 0.0 0.00 0.00 0.00 85 1017.5
20260504045417 36 195 0.0 0.0 0.00 0.00 0.00 84 1017.4
20260504044426 36 195 0.0 0.0 0.00 0.00 0.00 83 1017.5
20260504043432 36 195 0.0 0.0 0.00 0.00 0.00 82 1017.4
20260504042420 37 195 0.0 0.0 0.00 0.00 0.00 82 1017.3
20260504041427 37 195 0.0 0.0 0.00 0.00 0.00 82 1017.3
20260504040434 38 195 0.0 0.0 0.00 0.00 0.00 82 1017.4
20260504035421 38 195 0.0 0.0 0.00 0.00 0.00 81 1017.4
20260504034428 38 195 0.0 0.0 0.00 0.00 0.00 81 1017.4
20260504033452 39 195 0.0 0.0 0.00 0.00 0.00 80 1017.2
20260504032416 39 195 0.0 0.0 0.00 0.00 0.00 80 1017.3
20260504031424 39 195 0.0 0.0 0.00 0.00 0.00 79 1017.2
20260504030434 39 195 0.0 0.0 0.00 0.00 0.00 77 1017.0
20260504025422 40 195 0.0 0.0 0.00 0.00 0.00 77 1017.4
20260504024429 40 195 0.0 0.0 0.00 0.00 0.00 76 1017.3
20260504023417 41 195 0.0 0.0 0.00 0.00 0.00 75 1017.3
20260504022423 41 195 0.0 0.0 0.00 0.00 0.00 74 1017.0
20260504021428 42 195 0.0 0.0 0.00 0.00 0.00 73 1017.0
20260504020431 42 195 0.0 0.0 0.00 0.00 0.00 72 1016.9
20260504015417 43 195 0.0 0.0 0.00 0.00 0.00 70 1016.9
20260504014422 44 195 0.0 0.0 0.00 0.00 0.00 70 1017.0
20260504013448 44 195 0.0 0.0 0.00 0.00 0.00 68 1016.8
20260504012433 45 195 0.0 0.0 0.00 0.00 0.00 67 1016.8
20260504011425 46 195 0.0 0.0 0.00 0.00 0.00 64 1016.7
20260504010431 47 195 0.0 0.0 0.00 0.00 0.00 64 1016.7
20260504005429 48 195 0.0 0.0 0.00 0.00 0.00 60 1016.6
20260504004434 50 195 0.0 0.0 0.00 0.00 0.00 58 1016.3
20260504003421 51 195 0.0 0.0 0.00 0.00 0.00 56 1016.2
20260504002426 52 195 0.0 0.0 0.00 0.00 0.00 54 1016.1
20260504001452 54 195 0.0 0.0 0.00 0.00 0.00 51 1016.2
20260504000416 55 195 0.0 1.0 0.00 0.00 0.00 47 1016.1
20260503235420 55 195 0.0 2.0 0.00 0.00 0.00 47 1016.1
20260503234424 56 195 1.0 7.0 0.00 0.00 0.00 45 1016.1
20260503233449 57 174 2.0 6.0 0.00 0.00 0.00 40 1016.2
20260503232416 58 190 3.0 12.0 0.00 0.00 0.00 38 1016.3
20260503231424 59 193 3.0 7.0 0.00 0.00 0.00 38 1016.3
20260503230433 59 202 3.0 9.0 0.00 0.00 0.00 37 1016.3
20260503225423 59 178 4.0 9.0 0.00 0.00 0.00 36 1016.3
20260503224432 59 152 5.0 8.0 0.00 0.00 0.00 37 1016.5
20260503223420 59 201 3.0 9.0 0.00 0.00 0.00 37 1016.5
20260503222446 60 150 5.0 12.0 0.00 0.00 0.00 35 1016.6
20260503221433 60 161 4.0 8.0 0.00 0.00 0.00 36 1016.6
20260503220422 60 178 6.0 13.0 0.00 0.00 0.00 34 1016.7
20260503215428 60 148 5.0 9.0 0.00 0.00 0.00 36 1016.7
20260503214417 60 191 5.0 14.0 0.00 0.00 0.00 39 1016.7
20260503213422 60 192 6.0 14.0 0.00 0.00 0.00 38 1016.8
20260503212429 60 148 3.0 11.0 0.00 0.00 0.00 38 1016.8
20260503211419 60 192 4.0 9.0 0.00 0.00 0.00 40 1016.9
20260503210426 60 225 6.0 11.0 0.00 0.00 0.00 38 1016.9
20260503205453 60 186 4.0 10.0 0.00 0.00 0.00 39 1017.0
20260503204417 60 186 6.0 12.0 0.00 0.00 0.00 38 1017.0
20260503203425 61 125 3.0 9.0 0.00 0.00 0.00 39 1017.1
20260503202429 60 205 6.0 10.0 0.00 0.00 0.00 37 1017.3
20260503201437 60 209 5.0 11.0 0.00 0.00 0.00 39 1017.4
20260503200422 60 194 3.0 10.0 0.00 0.00 0.00 37 1017.7
20260503195427 59 180 5.0 10.0 0.00 0.00 0.00 36 1017.8
20260503194432 59 159 4.0 10.0 0.00 0.00 0.00 36 1018.1
20260503193420 59 212 5.0 11.0 0.00 0.00 0.00 36 1018.1
20260503192445 59 163 5.0 11.0 0.00 0.00 0.00 39 1018.1
20260503191430 58 146 5.0 10.0 0.00 0.00 0.00 35 1018.3
20260503190418 58 171 4.0 12.0 0.00 0.00 0.00 41 1018.5
20260503185425 58 161 5.0 12.0 0.00 0.00 0.00 40 1018.6
20260503184431 58 163 5.0 10.0 0.00 0.00 0.00 41 1018.6
20260503183417 57 205 5.0 10.0 0.00 0.00 0.00 35 1018.8
20260503182422 56 157 6.0 10.0 0.00 0.00 0.00 37 1019.0
20260503181427 56 132 2.0 9.0 0.00 0.00 0.00 40 1019.1
20260503180455 56 187 5.0 13.0 0.00 0.00 0.00 40 1019.2
20260503175417 56 204 4.0 10.0 0.00 0.00 0.00 42 1019.1
20260503174437 55 176 3.0 7.0 0.00 0.00 0.00 44 1019.2
20260503173416 55 192 6.0 11.0 0.00 0.00 0.00 41 1019.4
20260503172416 55 145 3.0 11.0 0.00 0.00 0.00 43 1019.6
20260503171416 55 196 3.0 7.0 0.00 0.00 0.00 46 1019.6
20260503170420 54 155 2.0 8.0 0.00 0.00 0.00 44 1019.8
20260503150422 47 211 4.0 8.0 0.00 0.00 0.00 49 1020.6